Regional Weather Roundup
Issued by NWS Lake Charles, LA

Home | Current Version | Previous Version | Text Only | Print | Product List | Glossary On
Versions: 1 2 3 4 5 6 7 8 9 10 11 12 13 14 15 16 17 18 19 20 21 22 23 24 25 26 27 28 29 30 31 32 33 34 35 36 37 38 39 40 41 42 43 44 45 46
000
ASUS44 KLCH 291010
RWRLCH
RWRLCH
REGIONAL WEATHER ROUNDUP
NATIONAL WEATHER SERVICE LAKE CHARLES LA
400 AM CST THU JAN 29 2015

Note: "fair" indicates few or no clouds below 12,000 feet with no
significant weather and/or obstructions to visibility.


ACROSS SOUTHEAST TEXAS

CITY           SKY/WX    TMP DP  RH WIND       PRES   REMARKS
BEAUMONT       CLEAR     54  54 100 S7        30.16F FOG
BEAUMONT CITY  FOG       53  53 100 S3        30.17S VSB 1/4
ORANGE         FOG       54  54 100 CALM      30.18F VSB 1/4
JASPER         FOG       55  54  98 S5        30.19S VSB 1/4
$$

ACROSS CENTRAL LOUISIANA

CITY           SKY/WX    TMP DP  RH WIND       PRES   REMARKS
LEESVILLE      CLOUDY    55  55  97 S7        30.17S FOG
FULLERTON      FOG       57  54  89 VRB3      30.16S VSB 3/4
ALEXANDRIA INT CLOUDY    55  53  93 S7        30.17S
ESLER FIELD    CLOUDY    54  50  86 SW3       30.19R
DERIDDER       FOG       54  53  95 CALM      30.20S VSB 1/2
OAKDALE        CLOUDY    42  41  95 CALM      30.19F FOG
OPELOUSAS      CLOUDY    49  48  96 S3        30.20S
$$

ACROSS SOUTHWEST AND SOUTH CENTRAL LOUISIANA

CITY           SKY/WX    TMP DP  RH WIND       PRES   REMARKS
SULPHUR        FOG       52  52 100 SE3       30.18F VSB 1/4
LAKE CHARLES   FOG       52  52 100 S3        30.17F VSB 1/4
CHENNAULT INT  NOT AVBL
CAMERON PHI    SUNNY     57  57 100 SE7       30.21  FOG
DEQUINCY       FOG       54  54 100 CALM      30.18S VSB 1/2
JENNINGS         N/A     54  54  98 CALM      30.19S
LAFAYETTE      CLEAR     50  49  96 S5        30.20F
NEW IBERIA     CLEAR     49  48  97 S5        30.20F FOG
ABBEVILLE      FOG       49  49 100 SE5       30.20F VSB 1/2
PATTERSON      CLEAR     48  46  93 CALM      30.23S
SALT POINT       N/A     54  53  97 SE6       30.21S
$$

SELECTED SITES ACROSS THE REGION

CITY           SKY/WX    TMP DP  RH WIND       PRES   REMARKS
HOUSTON BUSH   PTCLDY    53  53 100 CALM      30.15F FOG
HOUSTON HOBBY  FOG       54  54 100 S3        30.15F VSB 1/2
GALVESTON      PTCLDY    55  55 100 S6        30.17F
COLLEGE STAT   CLOUDY    59  57  93 S9        30.14S
CONROE         FOG       50  49  96 CALM      30.16S VSB 1/2
HUNTSVILLE     CLOUDY    60  58  92 SW8       30.14S
LUFKIN         CLOUDY    61  57  87 S7        30.15S
SHREVEPORT     PTCLDY    55  51  86 S7        30.10S
MONROE         MOCLDY    53  47  79 S8        30.15R
NATCHEZ MS     CLEAR     52  43  71 S5        30.19S
BATON ROUGE    CLEAR     41  38  89 E6        30.21F
N.O. INTL ARPT PTCLDY    48  43  82 CALM      30.22F
SLIDELL        CLEAR     38  36  92 CALM      30.22F
$$

MARINE REPORTS

STATION/POSITION TIME  TEMP    WIND        PRES    VSBY  WAVE
                       AIR SEA DIR/SP/G                  HT/PER
                 (UTC) (F)     (DEG/KT/KT) (MB)    (MI)  (FT/S)
BUOY 30 S HIGH I 1000   58 57  150/  6/  6 1021.3F         1/ 4
SEA RIM ST PARK  1000   58     170/  7/  9 1022.0F
PORT ARTHUR      1000      54  170/  3/  4 1021.6F
SABINE PASS N    1000   58 55  180/  5/  7 1021.6F
TEXAS POINT      NOT AVBL
CALCASIEU PASS   1000   58 56  170/  7/  8   N/A
LK CHARLES BEACH 1000   55 53              1021.9F
MARSH ISLAND     0900   62     160/  7/  8   N/A
FRESH WATER LOCK 1000   56 57  130/  4/  4 1022.8F
AMERADA PASS     1000   53 49  110/  3/  5 1023.3R
$$


USA.gov is the U.S. government's official web portal to all federal, state and local government web resources and services.